METAR LSZS 181520Z 32004KT 280V030 9999 FEW041 M06/M14 Q1019 RMK
Diese Daten sind ohne Gewähr und dürfen nicht für die Flugvorbereitung verwendet werden.
Information contained in this website shall not be used for flight operation purposes.